Location: ???????
(55.4362°N, 38.1183°E)
Time: 18:43:29
(UTC+00:00)

Cosmos 2278 Rocket - Pass Details

Date: 30 October 2021
Orbit: 841 x 845 km, 71.0° (Epoch: 28 November)

Event Time Altitude Azimuth Distance (km) Brightness Sun altitude
Rises 16:17:45 0° 325° (NW) 3,418 6.0 -20.9°
Reaches altitude 10° 16:20:13 10° 325° (NW) 2,479 5.2 -21.3°
Maximum altitude 16:25:54 80° 240° (WSW) 864 2.2 -22.1°
Enters shadow 16:29:00 28° 156° (SSE) 1,533 3.2 -22.5°
